Starlink 31368

operational
NORAD ID: 58970 Int'l Des: 2024-031 Owner: SPXS Country: US Constellation: starlink
LEOCIRCULAR

About Starlink 31368

Description loading...

Live Position

Loading 3D Globe...

Upcoming Passes

Altitude History

Altitude vs Time

uPlot chart will show altitude changes over time

Two-Line Element Set

1 58970U 24031F 25258.62459057 -.00000977 00000-0 -20859-4 0 9992
2 58970 53.1617 29.5983 0001048 76.1539 283.9578 15.30204840 89730
Epoch: Sep 15, 2025 • Age: 9 hours

Current Status

Altitude 489.2 km
Velocity 7.62 km/s
Sub-Earth Point -40.45°S, 105.55°W
Launch Date Feb 15, 2024
Age 1.5 years
Type internet

Technical Details

Classification Payload
Mass 730.00 kg
Dry Mass 700.00 kg
Total Mass 730.00 kg
Length 0.30 m
Diameter 4.10 m
Span 29.00 m
Shape Box + pan
Manufacturer SPXS
Bus Type Starlink V2M
Phase Status In Orbit
Owner/State SPXS/US

Large Constellations

Loading constellations...